| time (UTC) | temp C | wind direction | speed KPH | gust KPH | rain 1hr cm | rain 24hr cm | rain mn cm | humidity % | barometer mb |
| 20260906181403 | 22 | 90 | 0.0 | 3.2 | 0.00 | 0.00 | 0.00 | 88 | 1017.8 |
| 20260906180859 | 22 | 90 | 1.6 | 6.4 | 0.00 | 0.00 | 0.00 | 88 | 1017.9 |
| 20260906180354 | 22 | 127 | 3.2 | 4.8 | 0.00 | 0.00 | 0.00 | 89 | 1017.6 |
| 20260906175851 | 22 | 112 | 0.0 | 4.8 | 0.00 | 0.00 | 0.00 | 89 | 1017.9 |
| 20260906175346 | 22 | 126 | 1.6 | 3.2 | 0.00 | 0.00 | 0.00 | 90 | 1018.2 |
| 20260906174845 | 22 | 108 | 3.2 | 3.2 | 0.00 | 0.00 | 0.00 | 89 | 1018.1 |
| 20260906174344 | 22 | 131 | 3.2 | 6.4 | 0.00 | 0.00 | 0.00 | 89 | 1018.5 |
| 20260906173839 | 21 | 126 | 0.0 | 6.4 | 0.00 | 0.00 | 0.00 | 89 | 1018.6 |
| 20260906173335 | 21 | 123 | 3.2 | 6.4 | 0.00 | 0.00 | 0.00 | 89 | 1018.4 |
| 20260906172834 | 21 | 109 | 1.6 | 4.8 | 0.00 | 0.00 | 0.00 | 89 | 1018.4 |
| 20260906172331 | 21 | 144 | 0.0 | 6.4 | 0.00 | 0.00 | 0.00 | 89 | 1018.6 |
| 20260906171825 | 21 | 107 | 3.2 | 3.2 | 0.00 | 0.00 | 0.00 | 90 | 1018.8 |
| 20260906171320 | 21 | 123 | 0.0 | 4.8 | 0.00 | 0.00 | 0.00 | 90 | 1018.8 |
| 20260906170816 | 21 | 161 | 0.0 | 4.8 | 0.00 | 0.00 | 0.00 | 90 | 1018.8 |
| 20260906170312 | 21 | 132 | 3.2 | 8.0 | 0.00 | 0.00 | 0.00 | 90 | 1018.7 |
| 20260906165808 | 21 | 124 | 0.0 | 6.4 | 0.00 | 0.00 | 0.00 | 90 | 1018.7 |
| 20260906165306 | 21 | 140 | 3.2 | 4.8 | 0.00 | 0.00 | 0.00 | 90 | 1018.7 |
| 20260906164801 | 21 | 107 | 3.2 | 4.8 | 0.00 | 0.00 | 0.00 | 90 | 1018.9 |
| 20260906164256 | 21 | 168 | 0.0 | 4.8 | 0.00 | 0.00 | 0.00 | 90 | 1019.0 |
| 20260906163752 | 21 | 114 | 4.8 | 4.8 | 0.00 | 0.00 | 0.00 | 90 | 1018.7 |
| 20260906163248 | 21 | 112 | 0.0 | 6.4 | 0.00 | 0.00 | 0.00 | 90 | 1018.6 |
| 20260906162745 | 21 | 112 | 3.2 | 4.8 | 0.00 | 0.00 | 0.00 | 90 | 1018.8 |
| 20260906162240 | 21 | 128 | 6.4 | 6.4 | 0.00 | 0.00 | 0.00 | 90 | 1018.6 |
| 20260906161740 | 21 | 133 | 4.8 | 11.3 | 0.00 | 0.00 | 0.00 | 90 | 1018.5 |
| 20260906161239 | 21 | 128 | 6.4 | 6.4 | 0.00 | 0.00 | 0.00 | 90 | 1018.5 |
| 20260906160738 | 21 | 119 | 4.8 | 4.8 | 0.00 | 0.00 | 0.00 | 90 | 1018.5 |
| 20260906160237 | 21 | 114 | 1.6 | 8.0 | 0.00 | 0.00 | 0.00 | 91 | 1018.6 |
| 20260906155735 | 21 | 135 | 0.0 | 6.4 | 0.00 | 0.00 | 0.00 | 90 | 1018.6 |
| 20260906155230 | 21 | 175 | 0.0 | 4.8 | 0.00 | 0.00 | 0.00 | 90 | 1018.5 |
| 20260906154726 | 21 | 138 | 4.8 | 8.0 | 0.00 | 0.00 | 0.00 | 90 | 1018.1 |
| 20260906154221 | 21 | 121 | 3.2 | 6.4 | 0.00 | 0.00 | 0.00 | 90 | 1018.5 |
| 20260906153719 | 21 | 146 | 3.2 | 11.3 | 0.00 | 0.00 | 0.00 | 91 | 1018.3 |
| 20260906153214 | 21 | 146 | 0.0 | 8.0 | 0.00 | 0.00 | 0.00 | 91 | 1018.4 |
| 20260906152709 | 21 | 129 | 3.2 | 4.8 | 0.00 | 0.00 | 0.00 | 91 | 1018.4 |
| 20260906152203 | 21 | 114 | 6.4 | 6.4 | 0.00 | 0.00 | 0.00 | 91 | 1018.3 |
| 20260906151657 | 21 | 144 | 3.2 | 6.4 | 0.00 | 0.00 | 0.00 | 91 | 1018.4 |
| 20260906151153 | 21 | 102 | 3.2 | 8.0 | 0.00 | 0.00 | 0.00 | 91 | 1018.5 |
| 20260906150648 | 21 | 105 | 3.2 | 4.8 | 0.00 | 0.00 | 0.00 | 91 | 1018.6 |
| 20260906150144 | 21 | 151 | 4.8 | 8.0 | 0.00 | 0.00 | 0.00 | 91 | 1018.6 |
| 20260906145642 | 21 | 135 | 4.8 | 9.7 | 0.00 | 0.00 | 0.00 | 91 | 1018.5 |
| 20260906145137 | 21 | 121 | 3.2 | 8.0 | 0.00 | 0.00 | 0.00 | 91 | 1018.6 |
| 20260906144632 | 21 | 143 | 3.2 | 9.7 | 0.00 | 0.00 | 0.00 | 91 | 1018.5 |
| 20260906144127 | 21 | 135 | 4.8 | 8.0 | 0.00 | 0.00 | 0.00 | 92 | 1018.4 |
| 20260906143626 | 21 | 137 | 6.4 | 14.5 | 0.00 | 0.00 | 0.00 | 92 | 1018.6 |
| 20260906143124 | 21 | 148 | 3.2 | 8.0 | 0.00 | 0.00 | 0.00 | 92 | 1018.4 |
| 20260906142622 | 21 | 138 | 4.8 | 8.0 | 0.00 | 0.00 | 0.00 | 92 | 1018.4 |
| 20260906142118 | 21 | 90 | 3.2 | 4.8 | 0.00 | 0.00 | 0.00 | 92 | 1018.4 |
| 20260906141617 | 21 | 123 | 0.0 | 6.4 | 0.00 | 0.00 | 0.00 | 93 | 1018.6 |
| 20260906141113 | 21 | 119 | 3.2 | 4.8 | 0.00 | 0.00 | 0.00 | 93 | 1018.3 |
| 20260906140611 | 20 | 160 | 1.6 | 9.7 | 0.00 | 0.00 | 0.00 | 94 | 1018.3 |
| 20260906140106 | 21 | 131 | 4.8 | 8.0 | 0.00 | 0.00 | 0.00 | 94 | 1018.3 |
| 20260906135603 | 21 | 158 | 3.2 | 6.4 | 0.00 | 0.00 | 0.00 | 94 | 1018.6 |
| 20260906135059 | 20 | 140 | 4.8 | 8.0 | 0.00 | 0.00 | 0.00 | 94 | 1018.5 |
| 20260906134555 | 20 | 106 | 1.6 | 8.0 | 0.00 | 0.00 | 0.00 | 95 | 1018.7 |
| 20260906134055 | 20 | 186 | 1.6 | 8.0 | 0.00 | 0.00 | 0.00 | 95 | 1018.5 |
| 20260906133550 | 20 | 148 | 3.2 | 6.4 | 0.00 | 0.00 | 0.00 | 96 | 1018.5 |
| 20260906133045 | 20 | 157 | 3.2 | 8.0 | 0.00 | 0.00 | 0.00 | 96 | 1018.5 |
| 20260906132540 | 20 | 123 | 11.3 | 16.1 | 0.00 | 0.00 | 0.00 | 96 | 1018.4 |
| 20260906132036 | 20 | 169 | 3.2 | 6.4 | 0.00 | 0.00 | 0.00 | 97 | 1018.6 |
| 20260906131531 | 20 | 148 | 6.4 | 6.4 | 0.00 | 0.00 | 0.00 | 97 | 1018.5 |
| 20260906131027 | 20 | 127 | 3.2 | 4.8 | 0.00 | 0.00 | 0.00 | 97 | 1018.5 |
| 20260906130526 | 20 | 133 | 4.8 | 8.0 | 0.00 | 0.00 | 0.00 | 97 | 1018.3 |
| 20260906130021 | 20 | 154 | 3.2 | 6.4 | 0.00 | 0.00 | 0.00 | 97 | 1018.2 |
| 20260906125518 | 20 | 129 | 8.0 | 8.0 | 0.00 | 0.00 | 0.00 | 97 | 1018.1 |
| 20260906125013 | 20 | 117 | 1.6 | 11.3 | 0.00 | 0.00 | 0.00 | 97 | 1018.0 |
| 20260906124509 | 20 | 135 | 3.2 | 8.0 | 0.00 | 0.00 | 0.00 | 97 | 1018.0 |
| 20260906124003 | 20 | 120 | 3.2 | 3.2 | 0.00 | 0.00 | 0.00 | 97 | 1018.0 |
| 20260906123457 | 20 | 147 | 6.4 | 6.4 | 0.00 | 0.00 | 0.00 | 97 | 1017.7 |
| 20260906122957 | 20 | 132 | 3.2 | 6.4 | 0.00 | 0.00 | 0.00 | 97 | 1017.7 |
| 20260906122452 | 20 | 135 | 4.8 | 6.4 | 0.00 | 0.00 | 0.00 | 97 | 1017.6 |
| 20260906121948 | 20 | 111 | 1.6 | 8.0 | 0.00 | 0.00 | 0.00 | 97 | 1017.6 |
| 20260906121444 | 20 | 173 | 1.6 | 8.0 | 0.00 | 0.00 | 0.00 | 97 | 1017.6 |
| 20260906120940 | 20 | 135 | 3.2 | 4.8 | 0.00 | 0.00 | 0.00 | 97 | 1017.5 |
| 20260906120435 | 20 | 143 | 0.0 | 11.3 | 0.00 | 0.00 | 0.00 | 97 | 1017.5 |
| 20260906115932 | 20 | 124 | 4.8 | 6.4 | 0.00 | 0.00 | 0.00 | 97 | 1017.3 |
| 20260906115427 | 20 | 131 | 0.0 | 6.4 | 0.00 | 0.00 | 0.00 | 97 | 1017.3 |
| 20260906114927 | 20 | 125 | 3.2 | 8.0 | 0.00 | 0.00 | 0.00 | 97 | 1017.3 |
| 20260906114427 | 20 | 125 | 3.2 | 8.0 | 0.00 | 0.00 | 0.00 | 97 | 1017.3 |
| 20260906113923 | 20 | 111 | 6.4 | 8.0 | 0.00 | 0.00 | 0.00 | 97 | 1017.3 |
| 20260906113421 | 20 | 132 | 3.2 | 6.4 | 0.00 | 0.00 | 0.00 | 97 | 1017.4 |
| 20260906112917 | 20 | 132 | 3.2 | 8.0 | 0.00 | 0.00 | 0.00 | 97 | 1017.4 |
| 20260906112413 | 20 | 125 | 0.0 | 6.4 | 0.00 | 0.00 | 0.00 | 97 | 1017.4 |
| 20260906111908 | 20 | 96 | 1.6 | 8.0 | 0.00 | 0.00 | 0.00 | 97 | 1017.3 |
| 20260906111407 | 20 | 133 | 4.8 | 4.8 | 0.00 | 0.00 | 0.00 | 97 | 1017.2 |
| 20260906110902 | 19 | 148 | 0.0 | 8.0 | 0.00 | 0.00 | 0.00 | 97 | 1017.3 |
| 20260906110358 | 19 | 144 | 3.2 | 4.8 | 0.00 | 0.00 | 0.00 | 97 | 1017.5 |
| 20260906105857 | 19 | 123 | 3.2 | 4.8 | 0.00 | 0.00 | 0.00 | 97 | 1017.4 |
| 20260906105353 | 19 | 106 | 1.6 | 3.2 | 0.00 | 0.00 | 0.00 | 97 | 1017.6 |
| 20260906104848 | 19 | 123 | 0.0 | 3.2 | 0.00 | 0.00 | 0.00 | 97 | 1017.4 |
| 20260906104347 | 19 | 107 | 3.2 | 3.2 | 0.00 | 0.00 | 0.00 | 97 | 1017.1 |
| 20260906103845 | 19 | 117 | 0.0 | 3.2 | 0.00 | 0.00 | 0.00 | 97 | 1017.3 |
| 20260906103344 | 19 | 114 | 0.0 | 3.2 | 0.00 | 0.00 | 0.00 | 97 | 1017.3 |
| 20260906102840 | 19 | 126 | 1.6 | 3.2 | 0.00 | 0.00 | 0.00 | 97 | 1017.3 |
| 20260906102339 | 19 | 123 | 0.0 | 4.8 | 0.00 | 0.00 | 0.00 | 97 | 1017.1 |
| 20260906101834 | 19 | 103 | 0.0 | 3.2 | 0.00 | 0.00 | 0.00 | 97 | 1017.1 |
| 20260906101329 | 19 | 135 | 3.2 | 3.2 | 0.00 | 0.00 | 0.00 | 97 | 1017.1 |
| 20260906100825 | 20 | 103 | 1.6 | 4.8 | 0.00 | 0.00 | 0.00 | 97 | 1016.9 |
| 20260906100324 | 19 | 111 | 1.6 | 3.2 | 0.00 | 0.00 | 0.00 | 97 | 1017.0 |
| 20260906095819 | 20 | 126 | 0.0 | 3.2 | 0.00 | 0.00 | 0.00 | 97 | 1017.0 |
| 20260906095315 | 20 | 117 | 0.0 | 1.6 | 0.00 | 0.00 | 0.00 | 97 | 1016.9 |
| 20260906094814 | 20 | 126 | 1.6 | 3.2 | 0.00 | 0.00 | 0.00 | 97 | 1016.8 |
| 20260906094309 | 20 | 99 | 0.0 | 0.0 | 0.00 | 0.00 | 0.00 | 97 | 1016.8 |
| 20260906093805 | 20 | 90 | 0.0 | 0.0 | 0.00 | 0.00 | 0.00 | 97 | 1016.8 |
| 20260906093301 | 20 | 99 | 0.0 | 0.0 | 0.00 | 0.00 | 0.00 | 97 | 1016.7 |
| 20260906092755 | 20 | 95 | 0.0 | 3.2 | 0.00 | 0.00 | 0.00 | 97 | 1016.8 |
| 20260906092250 | 20 | 166 | 0.0 | 1.6 | 0.00 | 0.00 | 0.00 | 97 | 1016.7 |
| 20260906091746 | 20 | 112 | 0.0 | 4.8 | 0.00 | 0.00 | 0.00 | 97 | 1016.6 |
| 20260906091242 | 20 | 180 | 0.0 | 3.2 | 0.00 | 0.00 | 0.00 | 97 | 1016.5 |
| 20260906090738 | 20 | 151 | 3.2 | 3.2 | 0.00 | 0.00 | 0.00 | 97 | 1016.3 |
| 20260906090237 | 20 | 120 | 0.0 | 3.2 | 0.00 | 0.00 | 0.00 | 97 | 1016.5 |
| 20260906085736 | 20 | 114 | 3.2 | 4.8 | 0.00 | 0.00 | 0.00 | 97 | 1016.0 |
| 20260906085236 | 20 | 157 | 3.2 | 4.8 | 0.00 | 0.00 | 0.00 | 96 | 1016.1 |
| 20260906084730 | 20 | 159 | 0.0 | 4.8 | 0.00 | 0.00 | 0.00 | 96 | 1016.1 |
| 20260906084225 | 20 | 144 | 3.2 | 4.8 | 0.00 | 0.00 | 0.00 | 96 | 1015.9 |
| 20260906083720 | 20 | 148 | 0.0 | 3.2 | 0.00 | 0.00 | 0.00 | 96 | 1016.0 |
| 20260906083215 | 20 | 152 | 3.2 | 3.2 | 0.00 | 0.00 | 0.00 | 96 | 1015.9 |
| 20260906082710 | 20 | 82 | 0.0 | 3.2 | 0.00 | 0.00 | 0.00 | 96 | 1015.8 |
| 20260906082205 | 20 | 99 | 0.0 | 4.8 | 0.00 | 0.00 | 0.00 | 96 | 1016.1 |
| 20260906081702 | 20 | 90 | 0.0 | 4.8 | 0.00 | 0.00 | 0.00 | 96 | 1016.1 |
| 20260906081156 | 21 | 162 | 0.0 | 4.8 | 0.00 | 0.00 | 0.00 | 96 | 1016.2 |
| 20260906080653 | 21 | 143 | 3.2 | 3.2 | 0.00 | 0.00 | 0.00 | 96 | 1016.2 |
| 20260906080149 | 21 | 109 | 0.0 | 3.2 | 0.00 | 0.00 | 0.00 | 96 | 1016.3 |
| 20260906075648 | 21 | 135 | 0.0 | 3.2 | 0.00 | 0.00 | 0.00 | 96 | 1016.3 |
| 20260906075143 | 21 | 90 | 0.0 | 3.2 | 0.00 | 0.00 | 0.00 | 96 | 1016.1 |
| 20260906074638 | 21 | 117 | 0.0 | 4.8 | 0.00 | 0.00 | 0.00 | 96 | 1016.2 |
| 20260906074137 | 21 | 117 | 0.0 | 3.2 | 0.00 | 0.00 | 0.00 | 96 | 1016.2 |
| 20260906073632 | 21 | 90 | 0.0 | 3.2 | 0.00 | 0.00 | 0.00 | 96 | 1016.5 |
| 20260906073128 | 21 | 131 | 3.2 | 3.2 | 0.00 | 0.00 | 0.00 | 96 | 1016.3 |
| 20260906072622 | 21 | 102 | 0.0 | 3.2 | 0.00 | 0.00 | 0.00 | 96 | 1016.2 |
| 20260906072118 | 21 | 120 | 3.2 | 4.8 | 0.00 | 0.00 | 0.00 | 96 | 1016.3 |
| 20260906071615 | 21 | 109 | 0.0 | 3.2 | 0.00 | 0.00 | 0.00 | 96 | 1016.5 |
| 20260906071109 | 21 | 114 | 1.6 | 3.2 | 0.00 | 0.00 | 0.00 | 96 | 1016.5 |
| 20260906070606 | 21 | 124 | 0.0 | 4.8 | 0.00 | 0.00 | 0.00 | 96 | 1016.7 |
| 20260906070101 | 21 | 99 | 0.0 | 3.2 | 0.00 | 0.00 | 0.00 | 96 | 1016.5 |
| 20260906065600 | 21 | 96 | 0.0 | 3.2 | 0.00 | 0.00 | 0.00 | 96 | 1016.6 |
| 20260906065056 | 21 | 106 | 0.0 | 3.2 | 0.00 | 0.00 | 0.00 | 95 | 1016.9 |
| 20260906064552 | 21 | 98 | 0.0 | 3.2 | 0.00 | 0.00 | 0.00 | 95 | 1016.8 |
| 20260906064046 | 21 | 151 | 0.0 | 3.2 | 0.00 | 0.00 | 0.00 | 95 | 1016.8 |
| 20260906063541 | 21 | 126 | 0.0 | 1.6 | 0.00 | 0.00 | 0.00 | 95 | 1016.7 |
| 20260906063038 | 21 | 106 | 0.0 | 1.6 | 0.00 | 0.00 | 0.00 | 95 | 1016.9 |
| 20260906062533 | 21 | 90 | 0.0 | 1.6 | 0.00 | 0.00 | 0.00 | 95 | 1016.7 |
| 20260906062027 | 21 | 81 | 0.0 | 0.0 | 0.00 | 0.00 | 0.00 | 95 | 1016.9 |
| 20260906061523 | 21 | 90 | 0.0 | 1.6 | 0.00 | 0.00 | 0.00 | 95 | 1016.8 |
| 20260906061022 | 21 | 109 | 1.6 | 3.2 | 0.00 | 0.00 | 0.00 | 94 | 1017.0 |
| 20260906060519 | 21 | 151 | 1.6 | 1.6 | 0.00 | 0.00 | 0.00 | 94 | 1016.8 |
| 20260906060016 | 21 | 90 | 0.0 | 1.6 | 0.00 | 0.00 | 0.00 | 94 | 1017.0 |
| 20260906055511 | 21 | 145 | 1.6 | 1.6 | 0.00 | 0.00 | 0.00 | 94 | 1016.8 |
| 20260906055007 | 22 | 120 | 0.0 | 1.6 | 0.00 | 0.00 | 0.00 | 94 | 1016.7 |
| 20260906054501 | 22 | 106 | 0.0 | 3.2 | 0.00 | 0.00 | 0.00 | 94 | 1016.8 |
| 20260906053956 | 22 | 106 | 1.6 | 3.2 | 0.00 | 0.00 | 0.00 | 94 | 1016.6 |
| 20260906053453 | 22 | 117 | 0.0 | 3.2 | 0.00 | 0.00 | 0.00 | 94 | 1017.0 |
| 20260906052948 | 22 | 144 | 3.2 | 3.2 | 0.00 | 0.00 | 0.00 | 94 | 1016.9 |
| 20260906052444 | 22 | 98 | 1.6 | 3.2 | 0.00 | 0.00 | 0.00 | 94 | 1016.9 |
| 20260906051941 | 22 | 114 | 1.6 | 3.2 | 0.00 | 0.00 | 0.00 | 94 | 1017.0 |
| 20260906051436 | 22 | 106 | 0.0 | 1.6 | 0.00 | 0.00 | 0.00 | 94 | 1016.9 |
| 20260906050932 | 22 | 106 | 0.0 | 3.2 | 0.00 | 0.00 | 0.00 | 94 | 1016.9 |
| 20260906050431 | 22 | 106 | 1.6 | 1.6 | 0.00 | 0.00 | 0.00 | 94 | 1016.8 |
| 20260906045930 | 22 | 139 | 0.0 | 3.2 | 0.00 | 0.00 | 0.00 | 94 | 1016.8 |
| 20260906045429 | 22 | 110 | 3.2 | 3.2 | 0.00 | 0.00 | 0.00 | 94 | 1016.8 |
| 20260906044926 | 22 | 90 | 0.0 | 3.2 | 0.00 | 0.00 | 0.00 | 95 | 1016.8 |
| 20260906044420 | 22 | 126 | 1.6 | 4.8 | 0.00 | 0.00 | 0.00 | 95 | 1016.8 |
| 20260906043915 | 22 | 105 | 0.0 | 3.2 | 0.00 | 0.00 | 0.00 | 95 | 1016.9 |
| 20260906043412 | 22 | 106 | 0.0 | 1.6 | 0.00 | 0.00 | 0.00 | 95 | 1016.8 |
| 20260906042907 | 22 | 98 | 0.0 | 1.6 | 0.00 | 0.00 | 0.00 | 95 | 1016.8 |
| 20260906042406 | 22 | 106 | 0.0 | 1.6 | 0.00 | 0.00 | 0.00 | 95 | 1016.8 |
| 20260906041901 | 22 | 90 | 0.0 | 1.6 | 0.00 | 0.00 | 0.00 | 95 | 1016.8 |
| 20260906041356 | 22 | 69 | 1.6 | 1.6 | 0.00 | 0.00 | 0.00 | 95 | 1016.8 |
| 20260906040851 | 22 | 126 | 0.0 | 1.6 | 0.00 | 0.00 | 0.00 | 95 | 1016.7 |
| 20260906040346 | 22 | 99 | 0.0 | 0.0 | 0.00 | 0.00 | 0.00 | 95 | 1016.9 |
| 20260906035842 | 22 | 145 | 0.0 | 3.2 | 0.00 | 0.00 | 0.00 | 95 | 1017.0 |
| 20260906035337 | 22 | 98 | 0.0 | 1.6 | 0.00 | 0.00 | 0.00 | 95 | 1017.1 |
| 20260906034832 | 22 | 98 | 0.0 | 0.0 | 0.00 | 0.00 | 0.00 | 95 | 1016.9 |
| 20260906034327 | 22 | 111 | 0.0 | 3.2 | 0.00 | 0.00 | 0.00 | 95 | 1016.9 |
| 20260906033823 | 22 | 99 | 0.0 | 0.0 | 0.00 | 0.00 | 0.00 | 95 | 1016.9 |
| 20260906033322 | 22 | 99 | 0.0 | 0.0 | 0.00 | 0.00 | 0.00 | 95 | 1017.1 |
| 20260906032818 | 22 | 90 | 0.0 | 0.0 | 0.00 | 0.00 | 0.00 | 95 | 1016.9 |
| 20260906032314 | 22 | 90 | 0.0 | 0.0 | 0.00 | 0.00 | 0.00 | 95 | 1017.0 |
| 20260906031808 | 22 | 90 | 0.0 | 0.0 | 0.00 | 0.00 | 0.00 | 95 | 1016.7 |
| 20260906031333 | 22 | 90 | 1.6 | 3.2 | 0.00 | 0.00 | 0.00 | 95 | 1016.7 |
| 20260906030833 | 22 | 98 | 0.0 | 0.0 | 0.00 | 0.00 | 0.00 | 95 | 1016.6 |
| 20260906030329 | 22 | 98 | 0.0 | 1.6 | 0.00 | 0.00 | 0.00 | 95 | 1016.3 |
| 20260906025823 | 22 | 111 | 1.6 | 3.2 | 0.00 | 0.00 | 0.00 | 95 | 1016.6 |
| 20260906025317 | 22 | 97 | 0.0 | 1.6 | 0.00 | 0.00 | 0.00 | 95 | 1016.5 |
| 20260906024816 | 22 | 90 | 0.0 | 1.6 | 0.00 | 0.00 | 0.00 | 95 | 1016.2 |
| 20260906024315 | 22 | 99 | 0.0 | 1.6 | 0.00 | 0.00 | 0.00 | 95 | 1016.3 |
| 20260906023811 | 22 | 90 | 0.0 | 3.2 | 0.00 | 0.00 | 0.00 | 95 | 1016.3 |
| 20260906023306 | 22 | 90 | 0.0 | 0.0 | 0.00 | 0.00 | 0.00 | 95 | 1016.5 |
| 20260906022802 | 22 | 105 | 0.0 | 1.6 | 0.00 | 0.00 | 0.00 | 95 | 1016.3 |
| 20260906022257 | 22 | 99 | 0.0 | 0.0 | 0.00 | 0.00 | 0.00 | 95 | 1016.3 |
| 20260906021753 | 22 | 99 | 0.0 | 0.0 | 0.00 | 0.00 | 0.00 | 94 | 1016.2 |
| 20260906021252 | 22 | 99 | 0.0 | 0.0 | 0.00 | 0.00 | 0.00 | 94 | 1016.0 |
| 20260906020747 | 22 | 99 | 0.0 | 0.0 | 0.00 | 0.00 | 0.00 | 94 | 1016.0 |
| 20260906020246 | 22 | 90 | 0.0 | 1.6 | 0.00 | 0.00 | 0.00 | 94 | 1016.0 |
| 20260906015741 | 22 | 99 | 0.0 | 0.0 | 0.00 | 0.00 | 0.00 | 94 | 1015.9 |
| 20260906015239 | 22 | 99 | 0.0 | 0.0 | 0.00 | 0.00 | 0.00 | 94 | 1015.8 |
| 20260906014734 | 22 | 99 | 0.0 | 0.0 | 0.00 | 0.00 | 0.00 | 94 | 1015.7 |
| 20260906014230 | 23 | 99 | 0.0 | 0.0 | 0.00 | 0.00 | 0.00 | 94 | 1015.6 |
| 20260906013726 | 23 | 165 | 0.0 | 1.6 | 0.00 | 0.00 | 0.00 | 94 | 1015.6 |
| 20260906013226 | 23 | 29 | 0.0 | 0.0 | 0.00 | 0.00 | 0.00 | 94 | 1015.7 |
| 20260906012721 | 23 | 29 | 0.0 | 0.0 | 0.00 | 0.00 | 0.00 | 93 | 1015.5 |
| 20260906012216 | 23 | 29 | 0.0 | 0.0 | 0.00 | 0.00 | 0.00 | 93 | 1015.5 |
| 20260906011711 | 23 | 29 | 0.0 | 0.0 | 0.00 | 0.00 | 0.00 | 93 | 1015.3 |
| 20260906011205 | 23 | 90 | 0.0 | 0.0 | 0.00 | 0.00 | 0.00 | 93 | 1015.4 |
| 20260906010701 | 23 | 90 | 0.0 | 0.0 | 0.00 | 0.00 | 0.00 | 93 | 1015.3 |
| 20260906010158 | 23 | 90 | 0.0 | 0.0 | 0.00 | 0.00 | 0.00 | 93 | 1015.1 |
| 20260906005657 | 23 | 90 | 0.0 | 0.0 | 0.00 | 0.00 | 0.00 | 92 | 1015.2 |
| 20260906005156 | 23 | 90 | 0.0 | 0.0 | 0.00 | 0.00 | 0.00 | 92 | 1015.2 |
| 20260906004655 | 23 | 90 | 0.0 | 0.0 | 0.00 | 0.00 | 0.00 | 92 | 1015.2 |
| 20260906004150 | 23 | 90 | 0.0 | 0.0 | 0.00 | 0.00 | 0.00 | 92 | 1015.2 |
| 20260906003646 | 23 | 90 | 0.0 | 0.0 | 0.00 | 0.00 | 0.00 | 92 | 1014.9 |
| 20260906003141 | 23 | 114 | 1.6 | 1.6 | 0.00 | 0.00 | 0.00 | 91 | 1015.0 |
| 20260906002636 | 23 | 20 | 0.0 | 0.0 | 0.00 | 0.00 | 0.00 | 91 | 1015.2 |
| 20260906002131 | 23 | 90 | 0.0 | 0.0 | 0.00 | 0.00 | 0.00 | 91 | 1015.0 |
| 20260906001626 | 23 | 166 | 0.0 | 1.6 | 0.00 | 0.00 | 0.00 | 91 | 1014.8 |
| 20260906001126 | 23 | 99 | 0.0 | 0.0 | 0.00 | 0.00 | 0.00 | 91 | 1014.9 |
| 20260906000622 | 23 | 90 | 0.0 | 0.0 | 0.00 | 0.00 | 0.00 | 91 | 1014.9 |
| 20260906000117 | 24 | 90 | 0.0 | 0.0 | 0.00 | 0.00 | 0.00 | 91 | 1014.9 |
| 20260905235616 | 24 | 131 | 0.0 | 3.2 | 0.00 | 0.00 | 0.00 | 91 | 1014.8 |
| 20260905235111 | 24 | 106 | 1.6 | 1.6 | 0.00 | 0.00 | 0.00 | 91 | 1014.9 |
| 20260905234606 | 24 | 135 | 0.0 | 0.0 | 0.00 | 0.00 | 0.00 | 91 | 1014.9 |
| 20260905234102 | 24 | 103 | 0.0 | 0.0 | 0.00 | 0.00 | 0.00 | 91 | 1014.9 |
| 20260905233602 | 24 | 90 | 0.0 | 0.0 | 0.00 | 0.00 | 0.00 | 90 | 1014.9 |
| 20260905233056 | 24 | 90 | 0.0 | 0.0 | 0.00 | 0.00 | 0.00 | 90 | 1015.0 |
| 20260905232552 | 24 | 90 | 0.0 | 0.0 | 0.00 | 0.00 | 0.00 | 90 | 1014.8 |
| 20260905232047 | 24 | 90 | 0.0 | 1.6 | 0.00 | 0.00 | 0.00 | 90 | 1014.6 |
| 20260905231542 | 24 | 154 | 0.0 | 3.2 | 0.00 | 0.00 | 0.00 | 90 | 1014.8 |
| 20260905231039 | 24 | 90 | 0.0 | 0.0 | 0.00 | 0.00 | 0.00 | 90 | 1014.7 |
| 20260905230538 | 24 | 117 | 0.0 | 1.6 | 0.00 | 0.00 | 0.00 | 89 | 1014.8 |
| 20260905230037 | 24 | 120 | 0.0 | 4.8 | 0.00 | 0.00 | 0.00 | 89 | 1014.7 |
| 20260905225531 | 24 | 114 | 0.0 | 3.2 | 0.00 | 0.00 | 0.00 | 89 | 1014.6 |
| 20260905225026 | 24 | 22 | 0.0 | 4.8 | 0.00 | 0.00 | 0.00 | 89 | 1014.7 |
| 20260905224521 | 24 | 145 | 1.6 | 4.8 | 0.00 | 0.00 | 0.00 | 89 | 1014.8 |
| 20260905224020 | 24 | 119 | 0.0 | 4.8 | 0.00 | 0.00 | 0.00 | 88 | 1014.7 |
| 20260905223518 | 24 | 117 | 1.6 | 3.2 | 0.00 | 0.00 | 0.00 | 88 | 1014.7 |
| 20260905223013 | 24 | 120 | 1.6 | 4.8 | 0.00 | 0.00 | 0.00 | 89 | 1014.7 |
| 20260905222508 | 24 | 127 | 0.0 | 4.8 | 0.00 | 0.00 | 0.00 | 89 | 1014.8 |
| 20260905222003 | 24 | 112 | 3.2 | 3.2 | 0.00 | 0.00 | 0.00 | 89 | 1014.8 |
| 20260905221500 | 24 | 99 | 0.0 | 3.2 | 0.00 | 0.00 | 0.00 | 90 | 1014.7 |
| 20260905220955 | 24 | 105 | 0.0 | 3.2 | 0.00 | 0.00 | 0.00 | 89 | 1014.7 |
| 20260905220451 | 24 | 120 | 0.0 | 3.2 | 0.00 | 0.00 | 0.00 | 89 | 1014.7 |
| 20260905215950 | 24 | 90 | 1.6 | 4.8 | 0.00 | 0.00 | 0.00 | 88 | 1014.6 |
| 20260905215446 | 24 | 132 | 3.2 | 4.8 | 0.00 | 0.00 | 0.00 | 89 | 1014.5 |
| 20260905214942 | 24 | 131 | 3.2 | 4.8 | 0.00 | 0.00 | 0.00 | 89 | 1014.4 |
| 20260905214437 | 24 | 164 | 0.0 | 4.8 | 0.00 | 0.00 | 0.00 | 89 | 1014.4 |
| 20260905213932 | 24 | 127 | 0.0 | 4.8 | 0.00 | 0.00 | 0.00 | 89 | 1014.7 |
| 20260905213428 | 24 | 129 | 3.2 | 4.8 | 0.00 | 0.00 | 0.00 | 89 | 1014.5 |
| 20260905212923 | 24 | 113 | 0.0 | 4.8 | 0.00 | 0.00 | 0.00 | 89 | 1014.7 |
| 20260905212418 | 24 | 154 | 0.0 | 6.4 | 0.00 | 0.00 | 0.00 | 89 | 1014.6 |
| 20260905211917 | 24 | 195 | 0.0 | 4.8 | 0.00 | 0.00 | 0.00 | 89 | 1014.7 |
| 20260905211413 | 23 | 147 | 3.2 | 8.0 | 0.00 | 0.00 | 0.00 | 89 | 1014.4 |
| 20260905210909 | 23 | 120 | 0.0 | 6.4 | 0.00 | 0.00 | 0.00 | 90 | 1014.5 |
| 20260905210403 | 23 | 83 | 1.6 | 4.8 | 0.00 | 0.00 | 0.00 | 90 | 1014.5 |
| 20260905205903 | 23 | 146 | 3.2 | 8.0 | 0.00 | 0.00 | 0.00 | 90 | 1014.4 |
| 20260905205357 | 23 | 132 | 3.2 | 6.4 | 0.00 | 0.00 | 0.00 | 90 | 1014.5 |
| 20260905204856 | 23 | 120 | 3.2 | 8.0 | 0.00 | 0.00 | 0.00 | 90 | 1014.3 |
| 20260905204353 | 23 | 120 | 0.0 | 8.0 | 0.00 | 0.00 | 0.00 | 90 | 1014.3 |
| 20260905203851 | 23 | 132 | 3.2 | 8.0 | 0.00 | 0.00 | 0.00 | 90 | 1014.3 |
| 20260905203347 | 23 | 100 | 3.2 | 8.0 | 0.00 | 0.00 | 0.00 | 90 | 1014.4 |
| 20260905202842 | 23 | 23 | 0.0 | 6.4 | 0.00 | 0.00 | 0.00 | 90 | 1014.5 |
| 20260905202337 | 23 | 274 | 0.0 | 6.4 | 0.00 | 0.00 | 0.00 | 90 | 1014.2 |
| 20260905201833 | 23 | 105 | 1.6 | 4.8 | 0.00 | 0.00 | 0.00 | 90 | 1013.8 |
| 20260905201328 | 23 | 122 | 4.8 | 4.8 | 0.00 | 0.00 | 0.00 | 89 | 1013.9 |
| 20260905200822 | 24 | 49 | 3.2 | 6.4 | 0.00 | 0.00 | 0.00 | 89 | 1014.3 |
| 20260905200319 | 24 | 84 | 1.6 | 4.8 | 0.00 | 0.00 | 0.00 | 89 | 1014.3 |
| 20260905195816 | 24 | 111 | 1.6 | 4.8 | 0.00 | 0.00 | 0.00 | 89 | 1014.7 |
| 20260905195311 | 25 | 180 | 3.2 | 6.4 | 0.00 | 0.00 | 0.00 | 89 | 1014.6 |
| 20260905194807 | 25 | 66 | 6.4 | 12.9 | 0.00 | 0.00 | 0.00 | 88 | 1014.3 |
| 20260905194301 | 25 | 90 | 1.6 | 4.8 | 0.00 | 0.00 | 0.00 | 88 | 1014.3 |
| 20260905193800 | 25 | 45 | 0.0 | 6.4 | 0.00 | 0.00 | 0.00 | 88 | 1014.5 |
| 20260905193255 | 25 | 63 | 0.0 | 4.8 | 0.00 | 0.00 | 0.00 | 87 | 1014.7 |
| 20260905192750 | 25 | 15 | 1.6 | 3.2 | 0.00 | 0.00 | 0.00 | 87 | 1014.8 |
| 20260905192247 | 25 | 120 | 0.0 | 6.4 | 0.00 | 0.00 | 0.00 | 86 | 1014.9 |
| 20260905191746 | 26 | 108 | 4.8 | 4.8 | 0.00 | 0.00 | 0.00 | 85 | 1015.0 |
| 20260905191245 | 26 | 114 | 0.0 | 3.2 | 0.00 | 0.00 | 0.00 | 84 | 1015.2 |
| 20260905190743 | 26 | 209 | 0.0 | 4.8 | 0.00 | 0.00 | 0.00 | 84 | 1015.5 |
| 20260905190243 | 26 | 345 | 3.2 | 3.2 | 0.00 | 0.00 | 0.00 | 83 | 1015.4 |
| 20260905185742 | 26 | 174 | 1.6 | 4.8 | 0.00 | 0.00 | 0.00 | 83 | 1015.5 |
| 20260905185236 | 26 | 81 | 0.0 | 3.2 | 0.00 | 0.00 | 0.00 | 83 | 1015.6 |
| 20260905184730 | 26 | 151 | 4.8 | 4.8 | 0.00 | 0.00 | 0.00 | 84 | 1015.6 |
| 20260905184229 | 26 | 355 | 3.2 | 4.8 | 0.00 | 0.00 | 0.00 | 85 | 1015.6 |
| 20260905183753 | 26 | 90 | 0.0 | 4.8 | 0.00 | 0.00 | 0.00 | 84 | 1015.8 |
| 20260905183249 | 26 | 160 | 4.8 | 4.8 | 0.00 | 0.00 | 0.00 | 84 | 1015.7 |
| 20260905182748 | 26 | 139 | 3.2 | 3.2 | 0.00 | 0.00 | 0.00 | 84 | 1015.8 |
| 20260905182248 | 25 | 109 | 1.6 | 4.8 | 0.00 | 0.00 | 0.00 | 86 | 1015.9 |
| 20260905181743 | 25 | 7 | 0.0 | 3.2 | 0.00 | 0.00 | 0.00 | 86 | 1016.2 |